Regional Weather Roundup
Issued by NWS

Home | Current Version | Previous Version | Graphics & Text | Print | Product List | Glossary On
Versions: 1 2 3 4 5 6 7 8 9 10 11 12 13 14 15 16 17 18 19 20 21 22 23 24 25 26 27 28 29 30 31 32 33 34 35 36 37 38 39 40 41 42 43 44 45 46 47 48 49 50
000
ASUS43 KDTX 241401
RWRMI
MICHIGAN HOURLY REGIONAL WEATHER ROUNDUP
NATIONAL WEATHER SERVICE DETROIT/PONTIAC MI
1000 AM EDT THU JUL 24 2014

NOTE: "FAIR" INDICATES FEW OR NO CLOUDS BELOW 12,000 FEET WITH NO
SIGNIFICANT WEATHER AND/OR OBSTRUCTION TO VISIBILITY.

MIZ047>049-052>055-059>063-066>070-074>076-081>083-241500-
SOUTHEAST LOWER MICHIGAN

CITY           SKY/WX    TMP DP  RH WIND       PRES   REMARKS
ADRIAN         SUNNY     67  54  63 N8        30.14S
ALMA           SUNNY     63  51  67 N6        30.17S
ANN ARBOR      SUNNY     68  52  56 N8        30.13S
BAD AXE        MOSUNNY   64  56  74 N7        30.14F
CARO           SUNNY     66  59  78 N6        30.14F
DETROIT CITY   SUNNY     70  52  52 NE7       30.13R
DETROIT        MOSUNNY   68  53  58 N8        30.13S
FLINT          SUNNY     67  53  61 CALM      30.15S
GROSSE ILE     SUNNY     68  54  60 N8        30.11S
HILLSDALE      SUNNY     65  53  64 N6        30.14F
HOWELL         SUNNY     64  52  65 NE3       30.15S

CITY           SKY/WX    TMP DP  RH WIND       PRES   REMARKS
JACKSON        SUNNY     66  55  67 VRB5      30.15S
LAMBERTVILLE   SUNNY     68  54  60 NE6       30.12S
LANSING        SUNNY     65  55  70 NE6       30.16S
LAPEER         FAIR      64  52  64 CALM      30.14F
MASON          SUNNY     63  55  73 NE6       30.16S
MONROE         SUNNY     66  55  68 N6        30.10S
MT. CLEMENS    MOSUNNY   67  54  61 NE7       30.11S
PONTIAC        MOSUNNY   66  48  52 N8        30.13S
PORT HOPE        N/A     65  57  75 CALM      30.13S
PORT HURON     MOSUNNY   64  57  77 N7        30.13S
TRI CITIES     SUNNY     65  54  67 N6        30.16F
TROY           SUNNY     66  53  63 NE6       30.14S
SAGINAW HB     SUNNY     66  57  72 NE5       30.14S
$$
MIZ043>046-050>051-056>058-064>065-071>073-077>080-241500-
SOUTHWEST LOWER MICHIGAN

CITY           SKY/WX    TMP DP  RH WIND       PRES   REMARKS
BATTLE CREEK   PTSUNNY   65  54  67 NE6       30.16F
BENTON HARBOR  PTSUNNY   65  54  67 VRB5      30.17S
BIG RAPIDS     SUNNY     63  50  61 N3        30.17F
COLDWATER      PTSUNNY   66  55  67 N8        30.15S
FREMONT        FAIR      63  51  64 N5        30.18F
HOLLAND        SUNNY     66  52  60 CALM      30.18S
GRAND RAPIDS   MOSUNNY   65  53  65 VRB3      30.17F
IONIA          FAIR      62  53  72 CALM      30.16F
KALAMAZOO      PTSUNNY   65  54  67 N6        30.17S
LUDINGTON      SUNNY     62  52  70 N5        30.20S
MARSHALL       MOSUNNY   64  55  73 N3        30.15S
MOUNT PLEASANT SUNNY     63  52  66 N5        30.17S
MUSKEGON       SUNNY     66  49  54 NE6       30.19S
SOUTH HAVEN    MOSUNNY   65  56  72 E6        30.17S
$$
MIZ016>042-241500-
NORTHERN LOWER MICHIGAN

CITY           SKY/WX    TMP DP  RH WIND       PRES   REMARKS
ALPENA         SUNNY     64  52  64 NW5       30.14F
BEAVER ISLAND  SUNNY     62  55  78 W9        30.18S
BELLAIRE       SUNNY     63  52  67 MISG      30.18S
CADILLAC       SUNNY     62  51  67 N5        30.18F
CHARLEVOIX     SUNNY     64  52  63 W7        30.20F
FRANKFORT      SUNNY     66  49  54 N3        30.19S
GAYLORD        SUNNY     61  49  64 VRB5      30.17F
GRAYLING       SUNNY     62  50  63 N7        30.18F
HARBOR SPRINGS SUNNY     63  53  70 SW7       30.17S
HOUGHTON LAKE  SUNNY     63  49  60 N7        30.18
MANISTEE       SUNNY     63  48  59 NE5       30.20F
OSCODA         SUNNY     66  51  56 N5        30.14S
PELLSTON       SUNNY     63  53  70 W7        30.17S
ROGERS CITY    SUNNY     64  55  72 W6        30.15F
TRAVERSE CITY  SUNNY     64  50  60 NE3       30.17S
$$
MIZ007>008-015-241500-
EASTERN UPPER MICHIGAN

CITY           SKY/WX    TMP DP  RH WIND       PRES   REMARKS
KINROSS        SUNNY     61  54  77 NW9       30.14F
MACKINAC ISLAN SUNNY     60  50  71 W5        30.15F
NEWBERRY       SUNNY     60  50  71 W3        30.16S
S. S. MARIE    SUNNY     59  50  72 W8        30.13F
MUNISING         N/A     64  51  62 CALM      30.16F
$$
MIZ004>006-011>014-085-241500-
CENTRAL UPPER MICHIGAN

CITY           SKY/WX    TMP DP  RH WIND       PRES   REMARKS
MANISTIQUE     SUNNY     66  50  55 W6        30.17F
ESCANABA       SUNNY     64  50  59 W8        30.18S
MENOMINEE      SUNNY     63  52  67 N3        30.18F
SAWYER-GWINN   SUNNY     63  50  63 W6        30.18F
$$
MIZ001>003-009>011-084-241500-
WESTERN UPPER MICHIGAN

CITY           SKY/WX    TMP DP  RH WIND       PRES   REMARKS
IRON MOUNTAIN  SUNNY     63  50  62 VRB6      30.18F
HOUGHTON       SUNNY     64  50  60 NW10      30.16F
COPPER HARBOR    N/A     65  50  58 N12       30.14F
IRONWOOD       SUNNY     64  55  72 CALM      30.15F
$$

ABBREVIATIONS USED IN REMARKS
   TC - TEMPERATURE IN CELSIUS
  WCI - WIND CHILL INDEX
   HX - HEAT INDEX
  VSB - VISIBILITY




USA.gov is the U.S. government's official web portal to all federal, state and local government web resources and services.